Regional Weather Roundup
Issued by NWS

Home | Current Version | Previous Version | Graphics & Text | Print | Product List | Glossary On
Versions: 1 2 3 4 5 6 7 8 9 10 11 12 13 14 15 16 17 18 19 20 21 22 23 24 25 26 27 28 29 30 31 32 33 34 35 36 37 38 39 40 41 42 43 44 45 46 47 48 49 50
000
ASUS43 KOAX 230902
RWRNE

WEATHER ROUNDUP FOR NEBRASKA
NATIONAL WEATHER SERVICE OMAHA NE
300 AM CST MON JAN 23 2017

NOTES: SATELLITE DATA IS BEING USED TO AUGMENT CLOUD COVER ABOVE
       12000 FEET.
       "FAIR" INDICATES FEW OR NO CLOUDS BELOW 12,000 FEET WITH NO
       SIGNIFICANT WEATHER AND/OR OBSTRUCTIONS TO VISIBILITY.

  * THESE STATIONS DO NOT REPORT WEATHER SUCH AS RAIN...SNOW OR FOG.

NEZ001>004-019>022-054>056-231000-
NEBRASKA PANHANDLE

CITY           SKY/WX    TMP DP  RH WIND       PRES   REMARKS
SCOTTSBLUFF    CLOUDY    24  20  84 CALM      29.74F
ALLIANCE       CLEAR     23  18  81 S3        29.74F
CHADRON        PTCLDY    20  16  84 CALM      29.73F
SIDNEY         CLOUDY    26  20  77 S6        29.75F WCI  19
$$

NEZ057>060-069>072-079>082-231000-
SOUTHWEST NEBRASKA

CITY           SKY/WX    TMP DP  RH WIND       PRES   REMARKS
NORTH PLATTE   CLOUDY    23  20  88 CALM      29.83F
IMPERIAL       CLOUDY    29  24  82 S5        29.81F WCI  24
LEXINGTON      PTCLDY    26  24  91 CALM      29.85F
MCCOOK         MOCLDY    25  23  92 NE7       29.83F WCI  17
OGALLALA       PTCLDY    24  21  91 CALM      29.81S
$$

NEZ005>010-023>029-035>040-094-231000-
NORTH CENTRAL NEBRASKA

CITY           SKY/WX    TMP DP  RH WIND       PRES   REMARKS
VALENTINE      CLEAR     16  13  88 CALM      29.81F
AINSWORTH      CLOUDY    18  18  98 SE3       29.83S
BROKEN BOW     CLEAR     25  23  92 CALM      29.84S
O`NEILL        CLOUDY    27  26  99 CALM      29.87F FOG
ORD            PTCLDY    21  18  88 SW3       29.86S
THEDFORD       CLEAR     22  21  96 CALM      29.82F
$$

NEZ041-046>049-061>064-073>077-083>087-231000-
SOUTH CENTRAL NEBRASKA

CITY           SKY/WX    TMP DP  RH WIND       PRES   REMARKS
GRAND ISLAND   CLEAR     24  24 100 W5        29.89R WCI  18
AURORA         CLEAR     26  26  99 N5        29.89R WCI  20
HASTINGS       CLEAR     26  23  88 CALM      29.89S
HEBRON         PTCLDY    25  25 100 CALM      29.90S
HOLDREGE       CLOUDY    28  26  91 CALM      29.86S
KEARNEY *      CLEAR     27  23  86 CALM      29.87F
YORK           PTCLDY    27  27 100 NE8       29.89S WCI  18
$$

NEZ011>018-030>034-042>045-231000-
NORTHEAST NEBRASKA

CITY           SKY/WX    TMP DP  RH WIND       PRES   REMARKS
NORFOLK        CLOUDY    29  25  85 N7        29.89R WCI  22
ALBION         CLOUDY    27  24  89 N5        29.88F FOG     WCI  21
BLAIR          CLOUDY    32  28  87 NW8       29.91R WCI  25
FREMONT        CLOUDY    32  30  93 CALM      29.92R
TEKAMAH        CLOUDY    32  28  85 N12       29.90S WCI  23
WAYNE          CLOUDY    32  28  86 N12       29.89R WCI  23
$$

NEZ050>053-065>068-078-088>093-231000-
SOUTHEAST NEBRASKA

CITY           SKY/WX    TMP DP  RH WIND       PRES   REMARKS
LINCOLN        CLEAR     21  20  96 NE3       29.93R FOG
OMAHA EPPLEY   CLOUDY    32  26  78 NW13      29.91R WCI  22
BEATRICE       CLEAR     26  25  99 CALM      29.92R FOG
FALLS CITY     CLEAR     26  25  96 W3        29.91R FOG
NEBRASKA CITY  CLOUDY    31  31 100 N7        29.92R FOG     WCI  24
PLATTSMOUTH    CLOUDY    31  27  86 NW6       29.91S WCI  25
$$

NEZ044-045-051>053-067-231000-
OMAHA AREA

CITY           SKY/WX    TMP DP  RH WIND       PRES   REMARKS
OMAHA EPPLEY   CLOUDY    32  26  78 NW13      29.91R WCI  22
BLAIR          CLOUDY    32  28  87 NW8       29.91R WCI  25
FREMONT        CLOUDY    32  30  93 CALM      29.92R
MILLARD        CLOUDY    33  30  88 NW7       29.92R WCI  27
OFFUTT AFB     CLOUDY    31  31 100 NW6       29.92R WCI  26
PLATTSMOUTH    CLOUDY    31  27  86 NW6       29.91S WCI  25
WAHOO          CLOUDY    31  29  90 NW5       29.92S WCI  26
$$




USA.gov is the U.S. government's official web portal to all federal, state and local government web resources and services.